Location: Newark
(36.9100°N, 76.7100°W)
Time: 13:06:44
(UTC+00:00)

OTV 5 (USA 277) - Pass Details

Date: 18 October 2019
Orbit: 310 x 324 km, 54.5° (Epoch: 17 October)

Event Time Altitude Azimuth Distance (km) Brightness Sun altitude
Exits shadow 10:39:33 - 324° (NW) 1,685 ? -8.2°
Reaches altitude 10° 10:40:40 10° 330° (NNW) 1,236 ? -8.0°
Maximum altitude 10:43:16 38° 41° (NE) 504 ? -7.5°
Drops below altitude 10° 10:45:50 10° 113° (ESE) 1,223 ? -7.0°
Sets 10:47:52 0° 122° (ESE) 2,048 ? -6.6°
